Location: Katowice
(50.2611°N, 19.0242°E)
Time: 06:13:04
(UTC+02:00)

A-11 Canister half - Pass Details

Date: 22 July 2019
Orbit: 1526 x 1683 km, 47.3° (Epoch: 19 August)

Event Time Altitude Azimuth Distance (km) Brightness Sun altitude
Rises 21:45:40 0° 237° (WSW) 4,914 11.8 -8.6°
Reaches altitude 10° 21:48:53 10° 234° (SW) 3,916 11.2 -9.0°
Maximum altitude 21:58:40 61° 158° (SSE) 1,821 9.1 -10.0°
Drops below altitude 10° 22:08:10 10° 81° (E) 3,811 10.8 -11.0°
Sets 22:11:15 0° 78° (ENE) 4,776 11.3 -11.3°
